CAPE
0 0 0 0 0 0 0 0 0 0 0 0 0 0 0 0 0 0 597 814 907 597 961 1028 1148 1292 1196 1090 910 796 810 840 1009 1101 1303 1433 1418 1272 1164 1136 1149 1371 1658 1710 1563 1441 1431 1187 925
0 0 0 0 0 0 0 0 0 0 0 0 0 0 0 0 0 58 938 1035 1014 760 1052 1058 1229 1371 1328 1173 1053 969 979 1011 1036 1169 1271 1475 1564 1430 1440 1337 1280 1585 1685 1643 1570 1491 1460 1043 812
0 0 0 0 0 0 0 0 0 0 0 0 0 0 0 0 0 462 833 951 1140 964 1103 1140 1378 1511 1470 1284 1137 1102 1077 1090 1044 1110 1336 1573 1709 1662 1591 1447 1570 1807 1731 1449 1611 1637 1294 843 714
0 0 0 0 0 0 0 0 0 0 0 0 0 0 0 0 0 248 1008 1051 1190 1064 1254 1273 1420 1571 1495 1397 1324 1230 1064 1036 1057 1166 1306 1436 1566 1670 1566 1513 1597 1882 1742 1635 1625 1306 1034 747 721
0 0 0 0 0 0 0 0 0 0 0 0 0 0 0 0 4 547 1025 1033 757 916 1332 1360 1481 1569 1507 1511 1496 1419 1217 1102 1107 1206 1274 1382 1487 1537 1541 1608 1678 1852 1740 1587 1546 1339 945 771 800
0 0 0 0 0 0 0 0 0 0 0 0 0 0 0 0 28 769 1178 1018 1023 1052 1360 1462 1570 1642 1624 1607 1586 1541 1399 1307 1226 1228 1244 1395 1461 1450 1520 1594 1665 1830 1578 1330 1293 1024 786 745 828
0 0 0 0 0 0 0 0 0 0 0 0 0 0 0 0 0 477 825 846 947 1130 1325 1474 1598 1698 1620 1555 1517 1537 1456 1427 1426 1355 1341 1437 1522 1479 1474 1572 1707 1727 1251 1136 1111 919 734 651 731
0 0 0 0 0 0 0 0 0 0 0 0 0 0 0 0 1 636 802 759 888 1065 1275 1463 1616 1703 1599 1523 1480 1468 1475 1507 1543 1556 1498 1427 1465 1505 1492 1488 1623 1398 1073 1024 1010 768 633 661 637
0 0 0 0 0 0 0 0 0 0 0 0 0 0 0 0 237 590 1046 747 797 968 1095 1259 1440 1543 1563 1600 1568 1572 1583 1549 1632 1649 1618 1613 1483 1495 1465 1460 1474 1359 973 933 885 635 487 341 354
0 0 0 0 0 0 0 0 0 0 0 0 0 0 0 0 0 0 1049 1023 461 702 839 992 1050 1157 1277 1295 1481 1564 1634 1665 1645 1681 1667 1608 1559 1439 1358 1342 1390 1240 844 815 695 542 319 203 171
0 0 0 0 0 0 0 0 0 0 0 0 0 0 0 0 0 0 300 1361 1214 764 622 727 701 772 799 1003 1336 1358 1418 1457 1516 1506 1616 1609 1523 1475 1329 1148 1075 909 757 585 492 347 147 56 130
0 0 0 0 0 0 0 0 0 0 0 0 0 0 0 0 0 0 0 0 742 1528 1255 880 683 781 728 950 1069 1282 1228 1248 1248 1375 1549 1508 1449 1373 1180 1010 723 586 421 299 268 153 50 31 44
0 0 0 0 0 0 0 0 0 0 0 0 0 0 0 0 0 0 0 0 0 58 1260 1572 1250 956 881 859 922 974 1120 1118 1245 1262 1307 1405 1368 1270 1041 763 577 349 169 144 91 37 24 11 29
0 0 0 0 0 0 0 0 0 0 0 0 0 0 0 0 0 0 0 0 0 0 1 1170 1605 1457 1129 935 901 841 988 1018 1012 1080 1242 1331 1217 1105 920 593 406 248 21 1 0 0 8 25 13
0 0 0 0 0 0 0 0 0 0 0 0 0 0 0 0 0 0 0 0 0 0 0 0 995 1610 1427 1082 864 828 783 829 790 894 1174 1101 1017 806 573 379 221 157 3 1 0 0 28 57 37
0 0 0 0 0 0 0 0 0 0 0 0 0 0 0 0 0 0 0 0 0 0 0 0 90 998 1556 1438 1149 980 822 709 690 732 934 928 761 485 341 220 163 25 0 2 0 0 6 43 11
0 0 0 0 0 0 0 0 0 0 0 0 0 0 0 0 0 0 0 0 0 0 0 0 1 373 1102 1782 1608 1261 978 909 763 710 797 738 556 361 239 163 117 17 1 2 2 2 0 7 3
0 0 0 0 0 0 0 0 0 0 0 0 0 0 0 0 0 0 0 0 0 0 0 0 0 322 1216 1925 1777 1613 1321 1170 1061 794 809 731 563 371 327 211 118 31 2 4 7 1 3 11 8
0 0 0 0 0 0 0 0 0 0 0 0 0 0 0 0 0 0 0 0 0 0 0 0 0 132 1247 1952 1916 1700 1630 1478 1302 1091 914 817 727 496 533 330 134 39 49 12 6 3 7 5 12
0 0 0 0 0 0 0 0 0 0 0 0 0 0 0 0 0 0 0 0 0 0 0 0 0 10 932 1622 1913 1779 1665 1526 1432 1197 999 986 860 649 645 470 247 101 43 21 13 4 22 6 14
0 0 0 0 0 0 0 0 0 0 0 0 0 0 0 0 0 0 0 0 0 0 0 0 0 8 641 1657 1889 1474 1430 1180 1062 1004 910 624 773 740 657 467 268 209 77 44 62 42 8 30 21
0 0 0 0 0 0 0 0 0 0 0 0 0 0 0 0 0 0 0 0 0 0 0 0 0 0 1195 1768 1709 1422 1321 1101 1025 998 669 366 412 642 674 432 339 257 144 119 91 30 1 1 2
0 0 0 0 0 0 0 0 0 0 0 0 0 0 0 0 0 0 0 0 0 0 0 0 0 7 1308 1629 1591 1323 1254 1246 1035 899 0 3 284 479 498 412 309 273 145 102 116 34 9 2 2
0 0 0 0 0 0 0 0 0 0 0 0 0 0 0 0 0 0 0 0 1 1 0 2 1 323 1441 1596 1453 1136 1128 972 1001 878 259 137 343 397 443 428 315 197 151 123 106 39 5 4 4
0 0 0 0 0 0 0 0 0 0 0 0 0 0 0 0 0 0 0 0 2 5 3 5 3 279 1474 1448 1282 1064 1022 746 827 812 666 440 467 363 379 297 218 180 154 147 55 34 6 7 4
0 0 0 0 0 0 0 0 0 0 0 0 0 0 0 0 1 0 0 1 2 5 5 5 4 10 1302 1133 1014 821 558 480 486 346 277 268 307 277 251 209 167 161 128 69 46 15 4 3 9
0 0 0 0 0 0 0 0 0 0 0 0 0 0 0 0 1 0 0 1 3 4 6 5 8 1 893 908 615 409 348 418 302 131 55 54 157 141 135 108 106 140 86 66 61 49 26 5 2
0 0 0 0 0 0 0 0 0 0 0 0 0 0 0 2 0 0 0 2 3 3 4 5 6 7 788 615 404 294 267 253 152 63 1 43 82 70 40 14 37 128 124 97 51 26 20 8 20
0 0 0 0 0 1 0 0 0 4 0 0 3 4 3 1 2 1 1 2 3 3 5 5 6 8 9 338 302 274 229 126 53 16 0 6 4 7 52 60 71 68 56 15 8 4 7 7 15
0 0 0 0 0 0 0 0 0 0 0 1 3 2 3 2 0 0 1 2 3 5 5 5 6 8 7 5 230 199 90 111 39 20 0 2 5 28 35 38 39 1 0 1 1 1 0 2 1
CIN
0 0 0 0 0 0 0 0 0 0 0 0 0 0 0 0 0 0 -438 -546 -514 -491 -511 -432 -368 -343 -344 -357 -368 -352 -304 -262 -241 -222 -177 -145 -129 -116 -116 -105 -93 -58 -15 -2 -4 -11 -11 -19 -27
0 0 0 0 0 0 0 0 0 0 0 0 0 0 0 0 0 -79 -185 -408 -491 -473 -461 -416 -350 -327 -324 -329 -329 -319 -287 -248 -241 -219 -195 -151 -120 -106 -87 -81 -74 -34 -13 -7 -5 -7 -8 -19 -39
0 0 0 0 0 0 0 0 0 0 0 0 0 0 0 0 0 -124 -213 -359 -437 -430 -424 -406 -345 -313 -308 -306 -294 -296 -274 -241 -231 -216 -171 -138 -102 -72 -59 -58 -38 -17 -9 -19 -3 -0 -13 -35 -43
0 0 0 0 0 0 0 0 0 0 0 0 0 0 0 0 0 -170 -321 -367 -391 -436 -421 -389 -344 -309 -297 -281 -275 -265 -268 -249 -232 -201 -158 -120 -88 -57 -47 -39 -27 -9 -7 -6 -2 -6 -29 -40 -52
0 0 0 0 0 0 0 0 0 0 0 0 0 0 0 0 -50 -218 -275 -318 -277 -410 -404 -387 -341 -307 -289 -266 -258 -244 -247 -243 -226 -188 -160 -115 -85 -66 -51 -31 -18 -5 -4 -5 -0 -2 -23 -39 -46
0 0 0 0 0 0 0 0 0 0 0 0 0 0 0 0 -183 -270 -350 -414 -428 -383 -391 -359 -334 -308 -287 -271 -253 -234 -231 -219 -201 -177 -157 -119 -76 -64 -49 -29 -18 -5 -5 -8 -3 -13 -35 -41 -31
0 0 0 0 0 0 0 0 0 0 0 0 0 0 0 0 0 -297 -358 -399 -430 -408 -367 -351 -333 -314 -299 -286 -278 -252 -240 -213 -184 -165 -140 -115 -59 -46 -41 -29 -9 -4 -15 -14 -13 -33 -40 -36 -25
0 0 0 0 0 0 0 0 0 0 0 0 0 0 0 0 -18 -301 -309 -353 -377 -391 -365 -331 -283 -261 -284 -296 -284 -270 -262 -224 -196 -160 -132 -121 -69 -33 -33 -25 -6 -12 -29 -19 -22 -30 -35 -31 -40
0 0 0 0 0 0 0 0 0 0 0 0 0 0 0 0 -176 -185 -173 -268 -294 -342 -350 -317 -286 -254 -262 -249 -263 -242 -234 -241 -194 -155 -123 -92 -74 -37 -28 -21 -10 -12 -32 -23 -26 -32 -59 -58 -63
0 0 0 0 0 0 0 0 0 0 0 0 0 0 0 0 0 0 -96 -141 -259 -283 -332 -342 -336 -324 -309 -311 -261 -240 -214 -219 -225 -182 -136 -118 -72 -56 -37 -27 -10 -9 -26 -23 -38 -48 -62 -61 -75
0 0 0 0 0 0 0 0 0 0 0 0 0 0 0 0 0 0 -47 -67 -107 -247 -318 -341 -369 -403 -384 -354 -282 -266 -241 -241 -237 -230 -170 -129 -88 -61 -54 -36 -11 -22 -30 -39 -49 -64 -86 -88 -68
0 0 0 0 0 0 0 0 0 0 0 0 0 0 0 0 0 0 0 0 -61 -76 -133 -273 -360 -325 -387 -360 -332 -281 -291 -279 -281 -263 -208 -157 -108 -84 -87 -69 -77 -80 -77 -71 -77 -86 -97 -89 -79
0 0 0 0 0 0 0 0 0 0 0 0 0 0 0 0 0 0 0 0 0 -24 -79 -114 -201 -293 -294 -322 -344 -346 -323 -315 -284 -255 -266 -201 -145 -117 -119 -116 -107 -138 -109 -91 -99 -137 -136 -121 -94
0 0 0 0 0 0 0 0 0 0 0 0 0 0 0 0 0 0 0 0 0 0 -26 -101 -145 -185 -238 -267 -308 -354 -333 -331 -316 -289 -245 -231 -195 -165 -159 -148 -140 -156 -178 0 0 0 -66 -128 -106
0 0 0 0 0 0 0 0 0 0 0 0 0 0 0 0 0 0 0 0 0 0 0 0 -124 -184 -209 -254 -295 -327 -339 -314 -311 -298 -238 -231 -241 -232 -228 -194 -183 -170 -200 0 0 0 -139 -86 -49
0 0 0 0 0 0 0 0 0 0 0 0 0 0 0 0 0 0 0 0 0 0 0 0 -239 -202 -204 -219 -249 -281 -307 -307 -286 -286 -247 -229 -266 -301 -288 -243 -201 -263 0 -0 0 0 -144 -81 -40
0 0 0 0 0 0 0 0 0 0 0 0 0 0 0 0 0 0 0 0 0 0 0 0 -71 -216 -231 -200 -216 -253 -251 -252 -260 -273 -234 -254 -276 -313 -317 -277 -237 -229 -0 -0 0 0 -18 -113 -40
0 0 0 0 0 0 0 0 0 0 0 0 0 0 0 0 0 0 0 0 0 0 0 0 0 -230 -200 -156 -158 -184 -192 -213 -221 -242 -240 -241 -259 -284 -274 -258 -244 -211 0 0 -28 -0 -44 -102 -50
0 0 0 0 0 0 0 0 0 0 0 0 0 0 0 0 0 0 0 0 0 0 0 0 0 -244 -190 -86 -85 -131 -133 -180 -183 -226 -221 -219 -212 -239 -211 -213 -234 -227 -164 -89 -65 0 -55 -41 -20
0 0 0 0 0 0 0 0 0 0 0 0 0 0 0 0 0 0 0 0 0 0 0 0 0 -158 -209 -155 -124 -120 -180 -156 -178 -165 -149 -212 -186 -195 -180 -175 -180 -207 -180 -131 -132 -31 -42 -17 -12
0 0 0 0 0 0 0 0 0 0 0 0 0 0 0 0 0 0 0 0 0 0 0 0 0 -127 -244 -165 -119 -166 -165 -161 -150 -149 -170 -148 -157 -183 -168 -161 -179 -167 -135 -139 -86 -58 -44 -10 -8
0 0 0 0 0 0 0 0 0 0 0 0 0 0 0 0 0 0 0 0 0 0 0 0 0 0 -209 -117 -109 -176 -194 -151 -206 -223 -194 -82 -36 -166 -145 -144 -143 -139 -116 -96 -79 -65 -1 -2 0
0 0 0 0 0 0 0 0 0 0 0 0 0 0 0 0 0 0 0 0 0 0 0 0 0 -689 -176 -144 -144 -204 -212 -203 -246 -214 0 -30 -121 -172 -157 -130 -148 -123 -142 -124 -70 -66 -64 -3 0
0 0 0 0 0 0 0 0 0 0 0 0 0 0 0 0 0 0 0 0 0 0 0 0 0 -425 -134 -128 -167 -239 -230 -238 -219 -224 -288 -264 -211 -170 -125 -126 -143 -142 -140 -119 -65 -66 -3 -1 -0
0 0 0 0 0 0 0 0 0 0 0 0 0 0 0 0 0 0 0 0 0 0 0 0 0 -431 -87 -107 -155 -236 -218 -276 -236 -264 -201 -213 -211 -201 -189 -211 -171 -175 -140 -105 -105 -88 -75 -0 0
0 0 0 0 0 0 0 0 0 0 0 0 0 0 0 0 0 0 0 0 0 0 0 0 0 -586 -72 -122 -154 -209 -272 -287 -267 -263 -352 -335 -305 -287 -275 -226 -199 -173 -147 -135 -115 -141 -24 -7 -0
0 0 0 0 0 0 0 0 0 0 -8 0 0 0 0 0 0 0 0 0 0 0 0 0 0 0 -101 -113 -157 -226 -241 -224 -252 -280 -264 -292 -378 -367 -325 -278 -238 -167 -149 -132 -100 -95 -81 -3 -15
0 0 0 0 0 0 0 0 0 0 0 0 0 0 0 0 0 0 0 0 0 0 0 0 0 0 -72 -102 -132 -193 -218 -215 -227 -241 0 -308 -388 -388 -380 -346 -265 -165 -137 -108 -94 -99 -91 -2 -63
0 0 0 0 0 -4 0 0 0 -25 0 0 0 0 0 0 0 0 0 0 0 0 0 0 0 0 -89 -94 -113 -159 -155 -194 -208 -171 0 -318 -400 -402 -316 -240 -204 -181 -152 -155 -151 -44 -1 -0 -36
0 0 0 0 0 0 0 0 0 0 0 0 0 0 0 0 0 0 0 0 0 0 0 0 0 0 0 -12 -80 -145 -220 -156 -146 -111 -10 -244 -340 -320 -249 -249 -218 -13 -0 0 0 -7 -1 -1 -1
Wind_Speed
13 14 14 15 15 15 14 14 17 19 20 18 27 27 29 29 24 23 26 5 6 4 10 12 11 9 8 8 9 7 6 7 8 9 9 9 10 10 11 11 10 10 9 9 9 9 9 9 9
13 12 14 14 17 17 16 16 15 18 20 29 29 27 29 27 19 22 16 8 2 3 8 9 9 8 7 6 6 6 5 5 6 7 8 8 9 9 9 9 9 8 8 8 8 8 7 8 8
12 13 14 16 17 15 19 18 19 18 29 26 26 28 26 24 26 22 12 4 2 4 7 7 7 6 5 4 4 4 3 4 5 5 6 6 7 7 7 7 7 7 7 7 7 7 7 7 6
12 15 17 19 16 14 16 18 19 28 23 24 26 26 28 25 26 20 11 3 0 2 5 6 7 6 5 5 4 3 3 2 4 5 5 5 5 6 5 6 6 6 5 6 6 6 5 5 5
15 17 22 23 22 22 16 19 22 30 30 28 27 31 33 27 31 20 9 2 4 4 6 6 7 6 6 4 3 2 1 2 3 3 4 4 3 4 4 4 4 4 5 5 4 4 3 4 3
18 19 25 23 25 23 20 22 22 26 27 28 28 29 25 31 30 25 16 12 8 5 6 6 6 6 5 4 2 1 0 1 3 3 3 3 3 2 2 3 3 4 3 3 3 3 3 4 4
21 25 28 30 31 29 22 20 21 21 26 24 28 32 24 34 34 22 17 14 9 7 6 5 5 5 5 4 3 2 2 2 3 5 4 4 4 3 2 1 1 2 1 1 2 2 3 4 4
21 25 30 30 33 36 25 24 24 27 28 24 21 22 33 35 32 21 15 14 12 7 6 7 7 7 6 4 4 3 2 2 3 4 5 5 5 5 4 2 1 1 1 0 1 3 3 4 2
18 29 32 31 30 32 23 25 21 23 28 24 21 29 34 30 26 22 15 15 14 11 9 8 8 8 8 7 5 4 3 3 4 5 6 6 7 6 6 4 2 0 0 0 2 2 3 3 2
23 31 32 27 27 32 30 31 33 29 32 34 35 30 31 29 26 24 18 17 16 15 12 11 10 9 7 7 7 6 6 6 6 7 7 8 8 8 8 6 4 1 1 1 1 2 3 3 2
25 33 28 30 28 29 32 34 30 32 36 31 37 36 34 33 28 25 20 18 19 19 17 15 13 10 10 9 8 8 8 8 8 7 7 9 9 8 9 8 6 3 2 2 2 2 2 3 4
31 28 29 33 32 34 35 34 34 33 35 28 30 32 32 32 31 28 26 24 23 22 21 18 16 15 12 11 10 10 10 11 10 8 8 9 10 9 9 9 6 3 3 2 2 3 3 4 5
29 31 32 33 34 33 33 34 34 34 30 28 28 31 32 32 35 33 29 30 33 31 27 23 21 21 19 17 14 12 14 14 14 12 10 10 9 8 9 9 6 3 4 3 3 4 4 5 7
26 27 30 30 31 30 33 34 29 29 28 30 30 31 33 35 36 38 37 34 32 32 29 27 25 23 22 22 20 17 18 17 17 16 16 11 10 9 9 9 7 5 4 4 5 5 4 5 7
28 33 33 31 30 30 29 35 32 28 25 28 31 34 36 37 37 39 39 37 35 33 31 30 29 28 26 25 23 20 20 20 19 19 16 15 11 9 9 8 7 6 5 5 5 6 5 6 8
29 29 33 26 24 25 26 38 35 25 28 37 34 36 37 40 39 39 40 39 37 34 32 33 32 30 30 29 26 22 23 22 20 17 18 17 13 10 9 8 8 6 5 5 6 7 6 8 6
27 35 32 32 27 26 24 32 28 33 33 34 36 39 41 42 40 37 37 35 36 36 36 33 32 32 30 29 27 25 23 23 21 18 20 18 15 11 9 8 7 5 4 5 6 9 7 7 8
30 30 28 29 25 30 36 37 33 31 33 37 38 39 38 39 40 40 39 38 38 37 39 40 36 33 31 30 29 27 25 23 20 19 19 19 17 13 10 9 7 4 5 6 7 9 8 10 10
30 31 33 29 28 31 36 38 37 35 34 34 35 35 38 40 39 40 39 39 41 39 39 40 36 31 29 31 30 29 27 25 21 19 18 19 19 16 12 10 6 5 5 7 7 10 9 13 12
27 29 30 27 24 24 32 38 37 32 29 30 31 33 36 40 43 43 41 39 39 43 40 39 38 31 27 29 30 28 27 27 27 24 27 22 21 17 14 10 6 5 8 9 9 9 12 16 12
26 25 26 27 27 28 30 34 26 29 25 26 28 32 35 40 45 46 43 43 41 41 41 40 39 37 29 26 25 27 28 27 30 26 27 29 26 21 17 10 7 7 9 11 10 10 12 15 15
28 21 23 26 25 28 25 35 29 22 30 29 32 36 37 42 44 44 45 45 42 40 40 40 39 39 30 24 23 26 30 29 29 27 25 26 35 21 13 11 8 9 9 11 10 11 14 16 17
23 23 23 24 23 24 24 24 23 32 30 30 34 36 39 40 43 46 44 43 41 39 38 37 38 39 31 23 20 28 27 31 26 26 19 8 21 14 13 11 9 10 10 10 10 11 12 14 19
19 21 22 23 22 29 21 22 30 31 29 30 32 33 36 38 41 43 42 38 37 37 35 35 34 36 26 24 19 27 28 25 23 23 23 17 15 13 13 12 10 10 10 10 11 12 12 13 17
17 19 26 27 25 27 18 25 29 30 27 28 30 30 35 40 42 42 41 37 36 36 33 31 31 33 27 29 29 24 27 26 24 23 15 17 15 14 13 13 11 10 11 12 11 11 12 13 15
18 19 22 30 27 28 24 29 29 24 22 23 26 31 35 41 42 41 38 36 35 34 31 30 31 32 25 29 25 24 24 27 29 33 24 19 16 16 14 12 10 12 12 13 9 11 11 14 16
18 21 21 28 27 34 29 29 30 22 22 22 28 33 38 42 41 39 37 35 34 31 29 30 31 31 31 26 23 22 23 24 27 29 26 22 16 13 13 12 11 14 10 10 9 10 11 13 14
18 20 22 23 32 34 30 29 27 28 26 27 32 32 37 40 39 37 35 32 30 28 27 27 25 26 27 20 18 18 21 21 21 25 26 17 15 12 13 10 11 11 10 12 12 12 12 13 15
25 23 21 22 24 32 36 29 25 25 28 28 29 33 37 37 37 35 34 31 30 28 26 25 23 22 22 20 17 16 19 19 18 24 21 17 11 11 10 7 10 10 12 13 14 13 15 14 19
20 22 23 28 28 26 28 30 21 25 27 28 29 33 34 33 34 34 33 31 29 28 26 26 24 22 21 22 19 16 18 17 18 26 20 15 14 13 11 8 11 13 14 15 16 16 15 16 29
Wind_Direction
341 341 339 339 333 342 335 332 324 322 324 318 302 303 297 296 298 303 320 346 351 126 143 143 140 131 125 113 106 93 72 64 59 65 75 88 96 101 103 104 105 102 96 92 94 94 85 76 67
342 342 338 337 321 319 323 321 315 324 323 300 304 306 305 300 307 308 323 334 2 103 143 143 142 138 133 120 107 93 69 55 52 54 68 78 91 99 102 103 104 99 97 91 93 93 82 81 74
344 338 325 319 315 303 318 320 316 321 311 313 311 304 306 303 311 311 322 352 42 131 149 152 151 148 145 132 116 96 67 38 36 35 44 58 79 92 97 97 100 100 98 95 98 93 85 91 83
337 325 322 304 299 319 318 321 320 308 319 321 318 305 308 312 310 318 315 322 231 186 181 171 166 162 157 145 130 108 85 16 8 13 14 31 58 81 92 99 102 99 95 100 104 100 95 92 94
328 319 302 301 301 305 311 314 313 301 306 310 316 303 304 313 307 311 298 271 191 190 191 189 178 169 161 158 144 130 101 2 349 359 4 5 37 71 91 100 100 102 102 96 94 94 84 102 99
309 311 300 295 299 308 312 311 309 304 306 305 309 312 309 322 319 307 298 289 281 231 220 206 187 184 183 185 189 196 283 330 317 329 345 344 349 35 71 98 107 108 99 97 104 94 110 122 119
301 298 297 298 300 304 312 315 310 310 307 308 311 305 311 311 323 312 298 293 281 268 244 220 218 214 216 216 219 234 254 288 305 307 315 325 323 336 357 60 92 104 99 104 108 116 125 131 124
302 298 297 299 298 297 308 305 306 304 304 313 317 309 304 311 323 318 298 293 288 273 250 248 260 257 249 231 227 222 233 265 283 296 303 310 311 312 314 312 336 43 78 24 127 132 136 140 124
307 293 294 297 300 302 314 309 311 313 307 310 309 307 306 314 324 323 297 291 287 276 266 264 267 266 268 269 254 243 260 267 281 290 295 304 305 304 304 299 292 265 22 123 150 157 161 167 156
291 291 295 299 301 301 304 304 304 306 302 302 301 304 305 311 314 320 298 285 285 279 271 266 264 263 258 262 267 267 280 283 281 288 290 297 300 299 300 299 284 247 217 250 217 179 193 184 250
295 289 297 300 303 304 303 301 305 302 298 303 299 299 301 303 305 307 308 288 283 283 278 274 270 261 259 266 263 273 282 286 285 281 283 294 297 300 299 301 300 297 275 296 274 280 240 234 265
291 297 297 298 299 299 299 301 299 299 299 305 305 300 300 299 300 300 299 296 284 278 278 274 272 272 260 264 260 269 274 280 279 272 276 287 292 295 296 299 294 283 278 275 272 262 259 248 264
292 296 296 298 300 301 301 298 299 299 305 307 305 302 300 297 295 295 293 291 287 281 275 272 266 269 272 268 264 263 272 273 275 272 269 279 284 287 293 298 297 289 282 281 277 275 250 255 280
303 304 302 303 303 303 300 299 302 305 310 308 307 304 300 299 296 292 291 290 287 282 278 272 262 261 265 267 267 269 273 275 272 266 268 268 274 281 287 292 297 295 278 284 277 276 266 272 285
302 299 301 301 303 301 306 299 300 309 314 312 310 307 303 298 295 293 291 291 288 284 278 272 267 261 257 259 262 265 271 277 275 266 261 264 265 270 283 289 295 297 289 284 280 290 292 293 298
303 304 301 309 310 309 308 297 304 313 313 307 309 308 305 299 298 298 295 293 290 290 284 276 269 263 256 254 258 263 267 271 273 265 255 258 260 264 276 287 296 302 297 286 272 280 284 289 285
301 294 299 304 309 308 308 303 310 311 310 309 309 307 304 301 303 307 307 307 300 292 287 281 274 263 257 252 253 258 262 268 269 266 253 253 256 259 269 284 298 304 292 280 274 278 277 275 273
295 299 304 304 311 308 304 302 307 312 311 308 309 309 308 308 308 311 308 306 304 300 285 279 276 268 257 256 253 257 259 264 263 260 250 247 253 255 266 281 293 296 290 280 278 274 272 272 267
296 300 300 304 308 308 304 303 304 309 310 310 312 313 313 312 317 317 315 308 302 297 292 281 277 271 259 253 250 252 254 255 256 252 243 243 250 253 258 273 282 287 283 278 271 281 266 270 266
295 299 301 308 311 313 309 304 305 310 313 317 318 319 319 317 317 322 321 314 302 293 290 287 277 272 261 254 247 252 252 257 255 257 256 244 243 247 252 261 264 268 290 279 270 268 277 269 248
294 297 302 305 312 311 311 306 311 316 322 323 324 325 325 324 322 322 322 311 304 295 288 284 280 271 262 257 251 253 252 259 256 257 255 252 242 240 251 254 257 271 280 278 269 262 259 265 256
291 299 302 305 310 307 316 304 312 320 322 323 324 329 330 328 328 325 316 308 305 299 292 283 281 271 260 254 248 241 242 246 255 254 253 259 250 243 245 246 253 271 277 279 270 262 261 265 260
294 301 304 304 303 308 308 307 310 317 321 326 329 335 336 335 332 322 314 312 303 302 292 287 279 267 257 251 243 246 247 250 250 243 246 222 245 253 244 231 252 271 280 278 273 264 258 257 262
302 303 305 304 305 300 301 302 307 317 323 328 335 340 344 341 334 324 322 315 305 303 295 288 279 264 256 248 247 248 246 242 239 238 243 248 239 237 227 241 255 273 279 277 273 264 260 262 262
293 297 297 298 297 298 308 304 305 318 328 332 337 344 347 339 330 329 317 308 304 305 297 290 279 265 259 250 253 254 248 243 238 231 219 232 229 235 228 251 264 275 281 283 274 261 261 264 264
294 291 291 293 296 299 307 302 312 328 334 339 345 347 346 333 329 332 318 313 310 307 299 291 277 267 260 251 258 259 250 243 246 245 243 243 242 247 248 258 267 280 285 283 272 266 261 269 269
296 292 300 295 297 297 301 306 314 326 331 341 342 345 338 328 327 329 324 319 313 308 299 294 280 266 255 256 259 255 245 245 248 247 251 254 252 248 256 265 274 281 279 276 269 276 271 270 267
306 305 297 302 295 294 301 308 312 324 330 337 338 343 331 327 326 329 324 319 318 307 301 294 284 274 255 262 261 252 247 248 248 248 254 250 249 251 259 264 273 279 280 280 281 283 281 277 276
299 300 304 304 300 296 297 304 326 327 330 336 340 337 326 324 329 328 324 321 319 314 305 299 299 286 270 263 266 256 249 246 251 252 254 248 242 249 251 254 274 281 285 288 289 290 291 286 286
304 305 303 293 294 299 302 300 324 331 337 336 336 322 320 323 323 326 327 323 318 315 312 306 303 291 281 271 268 266 258 262 257 250 247 243 247 249 256 266 281 285 289 292 294 296 298 295 287